Regional Weather Roundup
Issued by NWS

Home | Current Version | Previous Version | Graphics & Text | Print | Product List | Glossary On
Versions: 1 2 3 4 5 6 7 8 9 10 11 12 13 14 15 16 17 18 19 20 21 22 23 24 25 26 27
000
ASUS45 KPSR 261710
RWRAZ

ARIZONA HOURLY REGIONAL WEATHER ROUNDUP
NATIONAL WEATHER SERVICE PHOENIX AZ
1000 AM MST SUN FEB 26 2017

NOTE: FAIR INDICATES FEW OR NO CLOUDS BELOW 12,000 FEET WITH NO
SIGNIFICANT WEATHER AND/OR OBSTRUCTIONS TO VISIBILITY.

AZZ001>003-036-261800-
NORTHWEST ARIZONA

CITY           SKY/WX    TMP DP  RH WIND       PRES   REMARKS
BULLHEAD CITY  MOSUNNY   54  28  37 N10       29.98R
KINGMAN        PTSUNNY   49  11  21 SW10      29.92S
$$

AZZ004>008-015-016-018-261800-
NORTH CENTRAL ARIZONA

CITY           SKY/WX    TMP DP  RH WIND       PRES   REMARKS
GRAND CANYON   CLOUDY    35  19  52 SW9       29.94R WCI  28
WILLIAMS       CLOUDY    36  16  44 S7        29.93R WCI  30
PRESCOTT       CLOUDY    41  18  39 W9G23     29.95R
FLAGSTAFF      CLOUDY    31  19  61 CALM      29.93S
PAYSON         CLOUDY    43  19  39 CALM      29.97R
PAGE           SUNNY     40  16  37 CALM      29.95S
$$

AZZ009>014-017-261800-
NORTHEAST ARIZONA

CITY           SKY/WX    TMP DP  RH WIND       PRES   REMARKS
WINSLOW        CLOUDY    43  21  41 SE8       29.96R
SAINT JOHNS    CLOUDY    39  21  48 E7        29.95F WCI  34
WINDOW ROCK    CLOUDY    34  20  56 SW8       29.94S WCI  27
SHOW LOW       CLOUDY    37  10  32 SW5       29.95F WCI  34
$$

AZZ023-261800-
GREATER PHOENIX AREA

CITY           SKY/WX    TMP DP  RH WIND       PRES   REMARKS
PHOENIX        PTSUNNY   59  30  33 E7        29.91R
BUCKEYE        CLOUDY    55  39  54 CALM      29.93R
GLENDALE       PTSUNNY   59  32  36 CALM      29.94R
LUKE AFB       PTSUNNY   59  33  37 CALM      29.92R
DEER VALLEY    MOSUNNY   58  26  29 CALM      29.91R
SCOTTSDALE     SUNNY     60  26  27 S5        29.93R
MESA-FALCON    MOSUNNY  N/A N/A N/A N7        29.90R
MESA-GATEWAY   PTSUNNY   55  36  47 CALM      29.93R
CHANDLER       SUNNY     57  34  41 CALM      29.93R
$$

AZZ027-028-261800-
SOUTHWEST MARICOPA COUNTY AND PINAL COUNTY

CITY           SKY/WX    TMP DP  RH WIND       PRES   REMARKS
CASA GRANDE    NOT AVBL
$$

AZZ503-504-507>509-261800-
SOUTHEAST ARIZONA

CITY           SKY/WX    TMP DP  RH WIND       PRES   REMARKS
TUCSON         MOSUNNY   62  15  16 SW15      29.94R
DAVIS-MONTHAN  PTSUNNY   62  11  13 SW13G20   29.93R
RYAN FIELD     MOSUNNY   63  12  14 SW10      29.94R
NOGALES        PTSUNNY   57   6  13 S16       29.97S
SIERRA VISTA   PTSUNNY   58  11  15 SW20G26   29.95F
DOUGLAS        CLOUDY    55  12  18 SE13      29.97F
SAFFORD        CLOUDY    56  13  18 CALM      29.92S
$$

AZZ020-021-025-026-031-261800-
SOUTHWEST ARIZONA

CITY           SKY/WX    TMP DP  RH WIND       PRES   REMARKS
YUMA           MOSUNNY   61  36  39 NW16      29.96R
$$

CAZ031-033-041-043-047-048-061-261800-
SOUTHERN CALIFORNIA

CITY           SKY/WX    TMP DP  RH WIND       PRES   REMARKS
DOWNTOWN L.A.  CLOUDY    53  43  68 VRB7      30.00S
L.A. AIRPORT   PTSUNNY   51  46  83 E8        30.01R
SAN DIEGO      CLOUDY    53  47  79 SE3       30.06S
BURBANK        LGT RAIN  48  41  76 SE6       30.00R
ONTARIO        PTSUNNY   48  44  86 VRB5      30.01R
RIVERSIDE      CLOUDY    50  44  80 NE5       30.01S
PALM SPRINGS   MOSUNNY   59  43  55 NW16      29.97R
EL CENTRO NAS  MOSUNNY   62  36  37 W13       29.99R
IMPERIAL         N/A    N/A N/A N/A MISG      29.97R
BLYTHE         PTSUNNY   59  34  39 N7        29.94S
NEEDLES        CLOUDY    56  28  34 N6        29.96R
$$

NVZ020-UTZ003-261800-
SOUTHERN NEVADA-UTAH

CITY           SKY/WX    TMP DP  RH WIND       PRES   REMARKS
LAS VEGAS      MOSUNNY   48  20  32 CALM      29.92F
SALT LAKE CITY PTSUNNY   29  17  61 SE14      29.93F WCI  18
$$

NMZ009-TXZ055-261800-
NEW MEXICO-WEST TEXAS

CITY           SKY/WX    TMP DP  RH WIND       PRES   REMARKS
ALBUQUERQUE    PTSUNNY   39  21  48 SW8       29.98S WCI  33
EL PASO        PTSUNNY   56   8  14 S6        29.97S
$$


........................KEY........................
SKY/WX - SKY CONDITION/WEATHER
TMP    - TEMPERATURE IN FAHRENHEIT
DP     - DEW POINT IN FAHRENHEIT
RH     - RELATIVE HUMIDITY IN PERCENT
WIND   - DIRECTION AND SPEED IN MILES PER HOUR (MPH)
VRB    - VARIABLE WIND DIRECTION
PRES   - MEAN SEA LEVEL PRESSURE IN INCHES OF MERCURY
         F - FALLING PRESSURE   R - RISING PRESSURE
         S - STEADY PRESSURE
VSB    - VISIBILITY IN MILES
HX     - HEAT INDEX IN FAHRENHEIT
WCI    - WIND CHILL INDEX IN FAHRENHEIT
TC     - TEMPERATURE IN CELSIUS WHICH IS ALSO KNOWN AS
         TEMPERATURE IN CENTIGRADE
AFB    - AIR FORCE BASE
         LUKE AFB IS LUKE AIR FORCE BASE
         DAVIS-MONTHAN IS DAVIS-MONTHAN AIR FORCE BASE
NAS    - NAVAL AIR STATION
         EL CENTRO NAS IS EL CENTRO NAVAL AIR STATION
N/A    - NOT AVAILABLE





USA.gov is the U.S. government's official web portal to all federal, state and local government web resources and services.